Location: Kershaw
(34.5481°N, 80.5823°W)
Time: 15:07:49
(UTC+00:00)

Vanguard 1 Rocket - Pass Details

Date: 30 September 2022
Orbit: 650 x 4225 km, 34.3° (Epoch: 08 December)

Event Time Altitude Azimuth Distance (km) Brightness Sun altitude
Rises 06:32:43 0° 282° (WNW) 5,092 - -53.2°
Reaches altitude 10° 06:36:52 10° 279° (W) 3,562 - -52.7°
Maximum altitude 06:44:39 54° 205° (SSW) 1,116 - -51.7°
Drops below altitude 10° 06:49:27 10° 127° (SE) 2,214 - -51.1°
Sets 06:51:29 0° 122° (ESE) 3,019 - -50.8°
